Weather Roundup
Issued by NWS

Home | Current Version | Previous Version | Graphics & Text | Print | Product List | Glossary Off
Versions: 1 2 3 4 5 6 7 8 9 10 11 12 13 14 15 16 17 18 19 20 21 22 23 24 25 26 27 28 29 30 31 32 33 34 35 36 37 38 39 40 41 42 43 44 45 46 47 48 49 50

000
NZUS93 KARX 150659
HRRWXR

CURRENT HOURLY OBSERVATIONS ACROSS
MUCH OF THE UPPER MISSISSIPPI VALLEY
NATIONAL WEATHER SERVICE LA CROSSE WI
200 AM CDT MON SEP 15 2014


...SOUTHEAST MINNESOTA...


CITY           SKY/WX    TMP DP  RH WIND       PRES   REMARKS
ROCHESTER      LGT RAIN  50  47  89 CALM      30.16R
ROCHESTER/MAYO CLOUDY    52  45  78 CALM      30.15R
WINONA         LGT RAIN  54  52  94 CALM      30.14F
AUSTIN         RAIN      48  46  93 NE3       30.15R
ALBERT LEA     LGT RAIN  52  48  87 N3        30.15S
DODGE CENTER   DRIZZLE   52  48  87 CALM      30.14S
PRESTON        CLOUDY    52  48  87 NE3       30.15S
OWATONNA       CLOUDY    52  46  82 CALM      30.15R
FARIBAULT      RAIN      54  46  76 CALM      30.14F
$$

...ELSEWHERE IN MINNESOTA...


CITY           SKY/WX    TMP DP  RH WIND       PRES   REMARKS
MINNEAPOLIS    LGT RAIN  53  45  74 N5        30.15S
INTNL FALLS    PTCLDY    44  42  93 W6        30.11R
DULUTH         CLEAR     44  41  89 NW8       30.11S
RED WING       CLOUDY    52  50  93 CALM      30.14R
REDWOOD FALLS  CLOUDY    50  48  93 NW5       30.15S
MANKATO        CLOUDY    52  45  76 CALM      30.15R
WORTHINGTON    CLOUDY    48  46  93 NE5       30.15S
FAIRMONT       CLOUDY    50  45  81 N3        30.15S
$$

...SOUTHWEST WISCONSIN...


CITY           SKY/WX    TMP DP  RH WIND       PRES   REMARKS
LA CROSSE      CLOUDY    56  47  71 N10       30.14S
PRAIRIE DU CHI MOCLDY    52  49  90 CALM      30.13S
BOSCOBEL       MOCLDY    51  49  92 NE3       30.15R
LONE ROCK      NOT AVBL
PLATTEVILLE    MOCLDY    51  47  86 CALM      30.16S
FORT MC COY    CLOUDY    55  45  70 CALM      30.15S
VIROQUA        PTSUNNY   54  52  93 CALM      30.13F
WIS DELLS      CLOUDY    55  47  75 CALM      30.14S
$$

...ELSEWHERE IN WISCONSIN...


CITY           SKY/WX    TMP DP  RH WIND       PRES   REMARKS
MILWAUKEE      MOCLDY    53  46  77 SW7       30.16R
MADISON        MOCLDY    58  47  66 SW5       30.14F
GREEN BAY      LGT RAIN  55  51  86 NW5       30.11F
EAU CLAIRE     CLOUDY    51  45  79 CALM      30.13F
BLACK RVR FLS  LGT RAIN  51  51 100 CALM      30.14S
MEDFORD        MOCLDY    47  44  88 CALM      30.14R
WAUSAU         CLOUDY    50  46  86 CALM      30.12S
WIS RAPIDS     LGT RAIN  52  49  89 NW3       30.15S
MARSHFIELD     CLOUDY    51  46  83 CALM      30.13F
RICE LAKE      PTCLDY    46  44  94 CALM      30.16S
$$

...NORTHEAST IOWA...


CITY           SKY/WX    TMP DP  RH WIND       PRES   REMARKS
WATERLOO       CLOUDY    52  49  89 SE5       30.11F
DUBUQUE        PTCLDY    48  45  89 S5        30.15S
DECORAH        CLOUDY    54  48  82 CALM      30.13S
MASON CITY     CLOUDY    52  48  86 N3        30.15S
CHARLES CITY   CLOUDY    52  50  93 N5        30.14R
OELWEIN        MOCLDY    50  50 100 S5        30.14S
$$

...ELSEWHERE IN IOWA...


CITY           SKY/WX    TMP DP  RH WIND       PRES   REMARKS
DES MOINES     CLOUDY    63  51  65 E5        30.10F
IOWA CITY      CLOUDY    54  51  90 SE3       30.15S
FORT DODGE     MOCLDY    54  50  87 N3        30.11R
MARSHALLTOWN   CLOUDY    52  50  93 E7        30.10F
CEDAR RAPIDS   CLOUDY    53  51  93 SE3       30.13F
$$

...NORTHERN ILLINOIS...


CITY           SKY/WX    TMP DP  RH WIND       PRES   REMARKS
CHICAGO-OHARE  MOCLDY    52  46  80 CALM      30.18S
DUPAGE         MOCLDY    50  47  89 SE3       30.18S
CHICAGO-MIDWAY MOCLDY    55  48  77 CALM      30.18S
MOLINE         MOCLDY    51  48  89 SE3       30.15F
ROCKFORD       NOT AVBL
STERLING       PTCLDY    46  43  87 SE3       30.16F
PEORIA         MOCLDY    56  50  80 CALM      30.17F
$$

NOTE: "FAIR" INDICATES FEW OR NO CLOUDS BELOW 12,000 FEET WITH NO
SIGNIFICANT WEATHER AND/OR OBSTRUCTIONS TO VISIBILITY. WIND
SPEEDS ARE IN MILES-PER-HOUR.



USA.gov is the U.S. government's official web portal to all federal, state and local government web resources and services.